Flag for France Weather past 2 weeks in Mulhouse, France

Now
70 °F

Sunny.


Feels Like: 70 °F
Forecast: 46 / 77 °F
Wind: 3 mph from North

Location: Bale-Mulhouse

Current Time: Jul 30, 2015 at 8:22:10 PM

Latest Report: Jul 30, 2015 at 8:00 PM


Visibility: 10 mi

Pressure: 30.01 "Hg

Humidity: 40%

Dew point: 45 °F

Location of MulhouseLocation

Historic Weather in Mulhouse — Graph

°F

Mulhouse temperature yesterday

Maximum temperature yesterday: 64 °F (at 2:30 PM)
Minimum temperature yesterday: 55 °F (at 11:00 PM)
Average temperature yesterday: 60 °F

Past Weeks' High & Low Weather Summary

 TemperatureHumidityPressure
High97 °F (Jul 17, 3:00 PM)100% (Jul 26, 5:00 AM)30.15 "Hg (Jul 26, 5:00 AM)
Low46 °F (Jul 26, 6:00 AM)22% (Jul 17, 4:30 PM)29.71 "Hg (Jul 24, 5:30 PM)
Average72 °F64%29.96 "Hg
* Reported Jul 15 7:00 PM — Jul 30 7:00 PM, Mulhouse, Weather by CustomWeather, © 2015

Note: Actual official high and low records may vary slightly from our data, if they occured in-between our weather recording intervals... More about our weather records

Advertising

Mulhouse weather history for previous 24 hours

 ConditionsComfort  
Time TempWeatherWind HumidityBarometerVisibility
7:00 PM
Thu, Jul 30
72 °FPassing clouds.9 mph33%30.01 "HgN/A
6:30 PM72 °FPassing clouds.9 mph33%30.01 "HgN/A
6:00 PM73 °FPassing clouds.9 mph31%30.01 "HgN/A
5:30 PM73 °FPassing clouds.9 mph33%30.01 "HgN/A
5:00 PM72 °FPassing clouds.9 mph36%30.01 "HgN/A
4:30 PM73 °FPassing clouds.10 mph31%30.01 "HgN/A
4:00 PM73 °FPassing clouds.8 mph36%30.01 "HgN/A
3:00 PM73 °FPassing clouds.8 mph36%30.01 "HgN/A
2:30 PM73 °FPartly sunny.7 mph31%30.01 "HgN/A
2:00 PM72 °FScattered clouds.8 mph33%30.01 "HgN/A
1:30 PM72 °FScattered clouds.7 mph33%30.01 "HgN/A
1:00 PM70 °FScattered clouds.6 mph35%30.01 "HgN/A
12:30 PM68 °FPartly sunny.6 mph38%30.04 "HgN/A
12:00 PM70 °FPartly sunny.5 mph38%30.01 "HgN/A
11:30 AM70 °FScattered clouds.3 mph40%30.04 "HgN/A
11:00 AM66 °FPassing clouds.3 mph56%30.04 "HgN/A
10:30 AM66 °FPassing clouds.2 mph60%30.04 "HgN/A
10:00 AM63 °FPassing clouds.3 mph64%30.04 "HgN/A
9:30 AM59 °FPassing clouds.6 mph72%30.04 "HgN/A
9:00 AM57 °FPassing clouds.6 mph77%30.04 "HgN/A
8:30 AM55 °FPassing clouds.6 mph82%30.04 "HgN/A
8:00 AM54 °FSunny.7 mph88%30.04 "Hg10 mi
7:30 AM52 °FPassing clouds.5 mph94%30.04 "HgN/A
7:00 AM50 °FPassing clouds.3 mph94%30.04 "HgN/A
6:30 AM48 °FPassing clouds.5 mph100%30.01 "HgN/A
6:00 AM48 °FPassing clouds.3 mph100%30.01 "HgN/A
5:30 AM48 °FClear.5 mph100%30.01 "Hg10 mi
5:00 AM48 °FClear.5 mph94%30.01 "Hg10 mi
4:30 AM48 °FClear.5 mph94%30.01 "Hg10 mi
4:00 AM48 °FClear.5 mph100%30.01 "Hg10 mi
3:30 AM48 °FClear.2 mph94%30.01 "Hg10 mi
3:00 AM48 °FClear.No wind100%30.01 "Hg10 mi
2:30 AM48 °FClear.2 mph94%30.01 "Hg10 mi
2:00 AM52 °FClear.3 mph94%30.01 "Hg10 mi
1:30 AM52 °FClear.3 mph94%30.01 "Hg10 mi
1:00 AM52 °FClear.1 mph94%30.01 "Hg10 mi
12:30 AM54 °FClear.3 mph88%30.01 "Hg10 mi
12:00 AM55 °FClear.3 mph88%30.01 "Hg10 mi
11:30 PM
Wed, Jul 29
55 °FClear.7 mph88%30.01 "Hg10 mi
11:00 PM55 °FClear.7 mph88%30.01 "Hg10 mi
10:30 PM57 °FPassing clouds.7 mph88%30.01 "HgN/A
10:00 PM57 °FScattered clouds.6 mph88%30.01 "HgN/A
9:30 PM59 °FScattered clouds.7 mph82%29.98 "HgN/A
9:00 PM61 °FScattered clouds.7 mph77%29.98 "HgN/A
8:30 PM63 °FPartly sunny.5 mph77%29.98 "HgN/A
8:00 PM63 °FPartly sunny.6 mph77%29.98 "HgN/A
Weather by CustomWeather, © 2015

See weather overviewHow to use our weather pages